| time (UTC) | temp C | wind direction | speed KPH | gust KPH | rain 1hr cm | rain 24hr cm | rain mn cm | humidity % | barometer mb |
| 20260902114622 | 13 | 236 | 3.2 | 6.4 | 0.00 | 0.00 | 0.00 | 60 | 1006.9 |
| 20260902113107 | 13 | 236 | 8.0 | 16.1 | 0.00 | 0.00 | 0.00 | 60 | 1007.2 |
| 20260902111604 | 12 | 171 | 4.8 | 9.7 | 0.00 | 0.00 | 0.00 | 64 | 1007.3 |
| 20260902110118 | 12 | 167 | 6.4 | 12.9 | 0.00 | 0.00 | 0.00 | 67 | 1007.5 |
| 20260902104602 | 11 | 130 | 4.8 | 11.3 | 0.00 | 0.00 | 0.00 | 72 | 1007.5 |
| 20260902103059 | 8 | 111 | 4.8 | 9.7 | 0.00 | 0.00 | 0.00 | 76 | 1007.8 |
| 20260902101601 | 8 | 0 | 0.0 | 0.0 | 0.00 | 0.00 | 0.00 | 74 | 1007.4 |
| 20260902100112 | 8 | 0 | 0.0 | 0.0 | 0.00 | 0.00 | 0.00 | 72 | 1007.4 |
| 20260902094558 | 9 | 0 | 0.0 | 3.2 | 0.00 | 0.00 | 0.00 | 70 | 1007.5 |
| 20260902093055 | 9 | 107 | 0.0 | 4.8 | 0.00 | 0.00 | 0.00 | 70 | 1007.3 |
| 20260902091555 | 10 | 0 | 0.0 | 3.2 | 0.00 | 0.00 | 0.00 | 68 | 1007.4 |
| 20260902090059 | 10 | 107 | 1.6 | 11.3 | 0.00 | 0.00 | 0.00 | 67 | 1007.4 |
| 20260902084617 | 10 | 113 | 4.8 | 9.7 | 0.00 | 0.00 | 0.00 | 65 | 1007.7 |
| 20260902083052 | 11 | 113 | 3.2 | 4.8 | 0.00 | 0.00 | 0.00 | 63 | 1007.7 |
| 20260902081601 | 11 | 113 | 1.6 | 6.4 | 0.00 | 0.00 | 0.00 | 60 | 1007.8 |
| 20260902080059 | 13 | 113 | 3.2 | 6.4 | 0.00 | 0.00 | 0.00 | 57 | 1007.9 |
| 20260902074553 | 13 | 0 | 0.0 | 0.0 | 0.00 | 0.00 | 0.00 | 55 | 1007.8 |
| 20260902073054 | 15 | 0 | 0.0 | 3.2 | 0.00 | 0.00 | 0.00 | 52 | 1007.8 |
| 20260902071605 | 15 | 113 | 3.2 | 4.8 | 0.00 | 0.00 | 0.00 | 51 | 1007.7 |
| 20260902070058 | 16 | 113 | 3.2 | 6.4 | 0.00 | 0.00 | 0.00 | 48 | 1007.6 |
| 20260902064602 | 17 | 113 | 0.0 | 4.8 | 0.00 | 0.00 | 0.00 | 46 | 1007.7 |
| 20260902063102 | 17 | 113 | 3.2 | 12.9 | 0.00 | 0.00 | 0.00 | 45 | 1007.9 |
| 20260902060106 | 17 | 0 | 0.0 | 4.8 | 0.00 | 0.00 | 0.00 | 46 | 1008.1 |
| 20260902054553 | 17 | 119 | 3.2 | 12.9 | 0.00 | 0.00 | 0.00 | 47 | 1008.0 |
| 20260902053059 | 16 | 0 | 1.6 | 4.8 | 0.00 | 0.00 | 0.00 | 49 | 1008.2 |
| 20260902051553 | 16 | 119 | 3.2 | 6.4 | 0.00 | 0.00 | 0.00 | 50 | 1008.1 |
| 20260902050121 | 15 | 0 | 0.0 | 0.0 | 0.00 | 0.00 | 0.00 | 50 | 1008.0 |
| 20260902044559 | 15 | 0 | 0.0 | 3.2 | 0.00 | 0.00 | 0.00 | 49 | 1007.9 |
| 20260902043104 | 16 | 119 | 0.0 | 3.2 | 0.00 | 0.00 | 0.00 | 47 | 1008.1 |
| 20260902041552 | 16 | 0 | 0.0 | 3.2 | 0.00 | 0.00 | 0.00 | 47 | 1008.1 |
| 20260902040054 | 17 | 0 | 0.0 | 0.0 | 0.00 | 0.00 | 0.00 | 42 | 1008.1 |
| 20260902034604 | 17 | 0 | 0.0 | 3.2 | 0.00 | 0.00 | 0.00 | 41 | 1008.3 |
| 20260902033056 | 17 | 0 | 0.0 | 0.0 | 0.00 | 0.00 | 0.00 | 40 | 1008.3 |
| 20260902031554 | 19 | 119 | 1.6 | 4.8 | 0.00 | 0.00 | 0.00 | 37 | 1008.3 |
| 20260902030052 | 19 | 119 | 4.8 | 9.7 | 0.00 | 0.00 | 0.00 | 37 | 1008.3 |
| 20260902024555 | 18 | 0 | 0.0 | 0.0 | 0.00 | 0.00 | 0.00 | 36 | 1008.1 |
| 20260902023055 | 19 | 0 | 0.0 | 0.0 | 0.00 | 0.00 | 0.00 | 35 | 1008.1 |
| 20260902021551 | 20 | 0 | 0.0 | 4.8 | 0.00 | 0.00 | 0.00 | 33 | 1008.1 |
| 20260902020057 | 21 | 0 | 0.0 | 0.0 | 0.00 | 0.00 | 0.00 | 32 | 1008.2 |
| 20260902014552 | 23 | 119 | 1.6 | 4.8 | 0.00 | 0.00 | 0.00 | 28 | 1008.1 |
| 20260902013051 | 26 | 119 | 1.6 | 9.7 | 0.00 | 0.00 | 0.00 | 25 | 1008.1 |
| 20260902011601 | 26 | 119 | 8.0 | 14.5 | 0.00 | 0.00 | 0.00 | 24 | 1008.2 |
| 20260902010105 | 27 | 117 | 8.0 | 16.1 | 0.00 | 0.00 | 0.00 | 24 | 1008.2 |
| 20260902004553 | 27 | 119 | 12.9 | 20.9 | 0.00 | 0.00 | 0.00 | 24 | 1008.2 |
| 20260902003101 | 27 | 146 | 11.3 | 19.3 | 0.00 | 0.00 | 0.00 | 24 | 1008.2 |
| 20260902001610 | 27 | 140 | 16.1 | 25.7 | 0.00 | 0.00 | 0.00 | 24 | 1008.2 |
| 20260902000056 | 28 | 144 | 12.9 | 20.9 | 0.00 | 0.00 | 0.00 | 21 | 1008.3 |
| 20260901234552 | 28 | 106 | 11.3 | 17.7 | 0.00 | 0.00 | 0.00 | 23 | 1008.3 |
| 20260901233057 | 28 | 157 | 6.4 | 19.3 | 0.00 | 0.00 | 0.00 | 21 | 1008.5 |
| 20260901231552 | 28 | 128 | 9.7 | 22.5 | 0.00 | 0.00 | 0.00 | 21 | 1008.6 |
| 20260901230053 | 28 | 181 | 9.7 | 17.7 | 0.00 | 0.00 | 0.00 | 21 | 1008.8 |
| 20260901224604 | 28 | 113 | 11.3 | 22.5 | 0.00 | 0.00 | 0.00 | 22 | 1008.9 |
| 20260901223055 | 28 | 153 | 4.8 | 16.1 | 0.00 | 0.00 | 0.00 | 22 | 1009.2 |
| 20260901221604 | 27 | 178 | 12.9 | 17.7 | 0.00 | 0.00 | 0.00 | 23 | 1009.2 |
| 20260901220057 | 27 | 150 | 3.2 | 22.5 | 0.00 | 0.00 | 0.00 | 24 | 1009.4 |
| 20260901214601 | 27 | 142 | 9.7 | 17.7 | 0.00 | 0.00 | 0.00 | 24 | 1009.6 |
| 20260901213058 | 27 | 67 | 3.2 | 14.5 | 0.00 | 0.00 | 0.00 | 24 | 1009.8 |
| 20260901211600 | 27 | 153 | 6.4 | 19.3 | 0.00 | 0.00 | 0.00 | 25 | 1010.0 |
| 20260901210112 | 26 | 138 | 0.0 | 17.7 | 0.00 | 0.00 | 0.00 | 25 | 1010.2 |
| 20260901204551 | 27 | 176 | 12.9 | 22.5 | 0.00 | 0.00 | 0.00 | 25 | 1010.4 |
| 20260901203102 | 26 | 172 | 11.3 | 20.9 | 0.00 | 0.00 | 0.00 | 26 | 1010.5 |
| 20260901201554 | 26 | 141 | 9.7 | 19.3 | 0.00 | 0.00 | 0.00 | 26 | 1010.7 |
| 20260901200056 | 26 | 159 | 4.8 | 17.7 | 0.00 | 0.00 | 0.00 | 26 | 1010.8 |
| 20260901194555 | 26 | 155 | 8.0 | 20.9 | 0.00 | 0.00 | 0.00 | 26 | 1011.0 |
| 20260901193054 | 25 | 160 | 8.0 | 22.5 | 0.00 | 0.00 | 0.00 | 27 | 1011.2 |
| 20260901191602 | 25 | 189 | 8.0 | 22.5 | 0.00 | 0.00 | 0.00 | 28 | 1011.2 |
| 20260901190059 | 25 | 115 | 12.9 | 25.7 | 0.00 | 0.00 | 0.00 | 28 | 1011.5 |
| 20260901184605 | 25 | 182 | 11.3 | 25.7 | 0.00 | 0.00 | 0.00 | 28 | 1011.6 |
| 20260901183105 | 24 | 180 | 14.5 | 27.4 | 0.00 | 0.00 | 0.00 | 30 | 1011.8 |
| 20260901181552 | 23 | 126 | 14.5 | 27.4 | 0.00 | 0.00 | 0.00 | 31 | 1012.0 |
| 20260901180059 | 23 | 152 | 12.9 | 24.1 | 0.00 | 0.00 | 0.00 | 32 | 1012.1 |
| 20260901174554 | 23 | 144 | 14.5 | 24.1 | 0.00 | 0.00 | 0.00 | 33 | 1012.2 |
| 20260901173055 | 22 | 157 | 14.5 | 27.4 | 0.00 | 0.00 | 0.00 | 35 | 1012.3 |
| 20260901171603 | 22 | 131 | 16.1 | 24.1 | 0.00 | 0.00 | 0.00 | 35 | 1012.6 |
| 20260901170056 | 21 | 162 | 17.7 | 24.1 | 0.00 | 0.00 | 0.00 | 36 | 1012.8 |
| 20260901164555 | 20 | 117 | 14.5 | 22.5 | 0.00 | 0.00 | 0.00 | 40 | 1012.7 |
| 20260901163057 | 19 | 151 | 16.1 | 24.1 | 0.00 | 0.00 | 0.00 | 42 | 1012.9 |
| 20260901161617 | 19 | 135 | 14.5 | 22.5 | 0.00 | 0.00 | 0.00 | 43 | 1012.9 |
| 20260901160104 | 18 | 118 | 12.9 | 22.5 | 0.00 | 0.00 | 0.00 | 44 | 1012.8 |
| 20260901154615 | 18 | 131 | 14.5 | 24.1 | 0.00 | 0.00 | 0.00 | 46 | 1012.8 |
| 20260901153109 | 18 | 123 | 17.7 | 24.1 | 0.00 | 0.00 | 0.00 | 47 | 1012.9 |
| 20260901151551 | 17 | 122 | 16.1 | 22.5 | 0.00 | 0.00 | 0.00 | 49 | 1012.9 |
| 20260901150109 | 17 | 138 | 12.9 | 20.9 | 0.00 | 0.00 | 0.00 | 51 | 1013.2 |
| 20260901144555 | 16 | 140 | 11.3 | 19.3 | 0.00 | 0.00 | 0.00 | 54 | 1013.3 |
| 20260901143108 | 15 | 140 | 9.7 | 16.1 | 0.00 | 0.00 | 0.00 | 57 | 1013.1 |
| 20260901141604 | 13 | 160 | 4.8 | 8.0 | 0.00 | 0.00 | 0.00 | 63 | 1013.1 |
| 20260901140100 | 13 | 160 | 4.8 | 8.0 | 0.00 | 0.00 | 0.00 | 65 | 1013.0 |
| 20260901134554 | 11 | 160 | 0.0 | 8.0 | 0.00 | 0.00 | 0.00 | 70 | 1012.8 |
| 20260901133104 | 10 | 160 | 3.2 | 6.4 | 0.00 | 0.00 | 0.00 | 72 | 1012.5 |
| 20260901131557 | 10 | 0 | 0.0 | 6.4 | 0.00 | 0.00 | 0.00 | 75 | 1012.4 |
| 20260901130059 | 9 | 160 | 4.8 | 8.0 | 0.00 | 0.00 | 0.00 | 74 | 1012.6 |
| 20260901124554 | 8 | 160 | 3.2 | 8.0 | 0.00 | 0.00 | 0.00 | 78 | 1012.8 |
| 20260901123054 | 8 | 0 | 0.0 | 6.4 | 0.00 | 0.00 | 0.00 | 75 | 1012.9 |
| 20260901121558 | 9 | 0 | 1.6 | 6.4 | 0.00 | 0.00 | 0.00 | 71 | 1012.7 |
| 20260901120109 | 10 | 0 | 0.0 | 3.2 | 0.00 | 0.00 | 0.00 | 70 | 1012.6 |